Terug naar catalogus

CZ-6A DEB

ActiefSSO
NORAD 56607·DEBRIS·🇨🇳 China

Gelanceerd Nov 11, 2022 vanaf Taiyuan Satellite Launch Center

Loading…

Volgende Passages (komende 24 uur)

TLE

VersSource: Space-Track

Epoch: Sep 13, 2026, 18:48 UTC

1 56607U 22151AEF 26256.78383143  .00000344  00000-0  13945-3 0  9999
2 56607  98.6864 282.6677 0115059 194.7319 165.0501 14.30392596176778

Volg CZ-6A DEB in realtime met AllMySat

Download on the App Store